This is the latest recevied weather packets stored in our database for station/object W4OCD. If no packets are shown the sender has not sent any weather packets the latest 10 day(s).
| Time | Temp. | Humidity | Pressure | Rain* | Wind** | Luminosity | Snow |
|---|---|---|---|---|---|---|---|
| 1788138036 | 84° F | 70% | 763.6 mmHg | 0 in | - | 0 W/m² | - |
| 1788137731 | 84° F | 70% | 763.5 mmHg | 0 in | - | 0 W/m² | - |
| 1788137430 | 84° F | 69% | 763.3 mmHg | 0 in | - | 0 W/m² | - |
| 1788137127 | 84° F | 70% | 763.4 mmHg | 0 in | - | 0 W/m² | - |
| 1788136822 | 84° F | 72% | 763.3 mmHg | 0 in | - | 0 W/m² | - |
| 1788136518 | 84° F | 71% | 763.3 mmHg | 0 in | - | 0 W/m² | - |
| 1788136214 | 84° F | 70% | 763.1 mmHg | 0 in | - | 0 W/m² | - |
| 1788135912 | 84° F | 71% | 763.2 mmHg | 0 in | - | 0 W/m² | - |
| 1788135608 | 85° F | 69% | 763.2 mmHg | 0 in | - | 0 W/m² | - |
| 1788135303 | 85° F | 69% | 763.3 mmHg | 0 in | - | 0 W/m² | - |
| 1788135000 | 86° F | 68% | 763 mmHg | 0 in | - | 3 W/m² | - |
| 1788134695 | 87° F | 66% | 763.3 mmHg | 0 in | - | 5 W/m² | - |
| 1788134393 | 87° F | 66% | 763 mmHg | 0 in | - | 7 W/m² | - |
| 1788134088 | 88° F | 63% | 763.1 mmHg | 0 in | - | 11 W/m² | - |
| 1788133784 | 88° F | 65% | 763 mmHg | 0 in | - | 17 W/m² | - |
| 1788133478 | 88° F | 63% | 763 mmHg | 0 in | - | 20 W/m² | - |
| 1788133174 | 89° F | 63% | 763 mmHg | 0 in | - | 23 W/m² | - |
| 1788132870 | 90° F | 62% | 763 mmHg | 0 in | - | 27 W/m² | - |
| 1788132565 | 90° F | 60% | 763 mmHg | 0 in | - | 31 W/m² | - |
| 1788132261 | 90° F | 60% | 763.2 mmHg | 0 in | - | 35 W/m² | - |
| 1788131958 | 90° F | 59% | 762.9 mmHg | 0 in | - | 40 W/m² | - |
| 1788131652 | 90° F | 59% | 762.9 mmHg | 0 in | - | 57 W/m² | - |
| 1788131352 | 91° F | 58% | 763 mmHg | 0 in | - | 69 W/m² | - |
| 1788131047 | 91° F | 58% | 763.1 mmHg | 0 in | - | 69 W/m² | - |
| 1788130746 | 91° F | 57% | 763 mmHg | 0 in | - | 91 W/m² | - |
* Rain latest hour (hover to see other rain measurements)
** Current wind speed in m/s (hover to see current wind gust speed)